Home > Weather > Montreal > Past weeks

Flag for Canada Weather for the Past 2 Weeks in Montreal, Quebec, Canada

Now
16 °F

Mostly cloudy.


Feels Like: -3 °F
Forecast: 16 / 22 °F
Wind: 26 mph from Northeast

Location: Montreal - Pierre Elliot Trudeau International Aiport

Current Time: Feb 8, 2016 at 10:14:25 AM

Latest Report: Feb 8, 2016 at 9:00 AM


Visibility: 15 mi

Pressure: 30.02 "Hg

Humidity: 48%

Dew point: 0 °F

Location of MontrealLocation

Historic Weather in Montreal — Graph

°F

Montreal Temperature Yesterday

Maximum temperature yesterday: 34 °F (at 12:00 AM)
Minimum temperature yesterday: 16 °F (at 5:00 PM)
Average temperature yesterday: 23 °F

High & Low Weather Summary for the Past Weeks

 TemperatureHumidityPressure
High46 °F (Feb 1, 6:00 AM)93% (Jan 26, 3:00 PM)30.42 "Hg (Jan 26, 3:00 PM)
Low7 °F (Jan 24, 9:00 AM)45% (Feb 7, 2:00 PM)29.37 "Hg (Feb 1, 4:00 AM)
Average29 °F73%29.94 "Hg
* Reported Jan 24 9:00 AM — Feb 8 9:00 AM, Montreal, Weather by CustomWeather, © 2016

Note: Actual official high and low records may vary slightly from our data, if they occured in-between our weather recording intervals... More about our weather records

Advertising

Montreal Weather History for the Previous 24 Hours

 ConditionsComfort  
Time TempWeatherWind HumidityBarometerVisibility
9:00 AM
Mon, Feb 8
16 °FMostly cloudy.26 mph48%30.02 "Hg15 mi
8:00 AM16 °FPartly sunny.24 mph48%30.02 "Hg15 mi
7:00 AM16 °FPassing clouds.24 mph48%30.02 "Hg15 mi
6:00 AM16 °FPassing clouds.20 mph53%30.02 "Hg15 mi
5:00 AM18 °FPassing clouds.24 mph49%30.02 "Hg15 mi
4:00 AM18 °FPassing clouds.22 mph53%30.04 "Hg15 mi
3:00 AM18 °FPassing clouds.16 mph58%30.06 "Hg15 mi
2:00 AM18 °FPassing clouds.18 mph53%30.09 "Hg15 mi
1:00 AM18 °FPassing clouds.20 mph53%30.11 "Hg15 mi
12:00 AM18 °FOvercast.20 mph53%30.12 "Hg15 mi
11:00 PM
Sun, Feb 7
18 °FOvercast.17 mph53%30.15 "Hg15 mi
10:00 PM18 °FOvercast.21 mph49%30.16 "Hg15 mi
9:00 PM16 °FOvercast.17 mph53%30.19 "Hg15 mi
8:00 PM18 °FMostly cloudy.15 mph49%30.22 "Hg15 mi
7:00 PM16 °FOvercast.16 mph53%30.21 "Hg15 mi
6:00 PM16 °FOvercast.16 mph53%30.22 "Hg15 mi
5:00 PM16 °FMostly cloudy.17 mph53%30.21 "Hg15 mi
4:00 PM18 °FOvercast.16 mph45%30.23 "Hg15 mi
3:00 PM18 °FOvercast.15 mph53%30.24 "Hg15 mi
2:00 PM18 °FMostly cloudy.16 mph45%30.22 "Hg15 mi
1:00 PM18 °FPartly sunny.14 mph49%30.23 "Hg15 mi
12:00 PM19 °FPartly sunny.16 mph63%30.21 "Hg15 mi
11:00 AM23 °FPartly sunny.16 mph58%30.20 "Hg15 mi
10:00 AM23 °FOvercast.14 mph63%30.20 "Hg15 mi
Weather by CustomWeather, © 2016

See weather overviewHow to use our weather pages